Temperature
17 16 15 14 14 14 14 14 13 13 13 13 13 12 12 12 12 12 12 12 12 12 12 12 12 12 12 12 12 12 13 13 13 13 13 12 11 11 12 12 12 12 12
18 16 15 14 14 14 14 14 13 13 13 13 12 12 12 12 12 12 11 12 12 12 12 12 12 11 11 11 12 12 12 13 13 13 12 12 11 11 11 11 11 11 11
17 16 15 14 14 14 14 13 13 13 13 12 12 12 11 11 11 11 11 11 11 11 11 12 12 11 11 11 11 12 12 12 12 12 12 11 11 10 10 10 10 10 10
17 16 15 14 14 14 14 13 13 13 13 12 12 11 11 11 11 11 11 11 11 11 11 11 11 11 11 11 11 11 12 12 12 11 11 11 10 9 9 9 9 10 10
17 16 15 14 14 14 14 13 13 12 12 12 12 11 11 11 11 10 11 11 11 11 11 11 11 11 11 11 11 11 11 11 11 11 11 10 10 9 9 9 9 9 9
16 16 15 14 14 14 13 13 13 12 12 12 11 11 11 10 10 10 11 11 11 11 11 11 11 11 11 11 11 11 11 11 11 10 10 10 10 9 9 9 9 9 9
17 15 15 14 14 14 13 13 13 12 12 12 11 11 11 11 11 11 11 11 11 11 11 11 11 10 10 10 10 11 10 10 10 10 10 10 9 9 8 9 9 9 9
17 16 15 14 14 14 13 13 13 12 12 12 11 11 11 11 11 11 11 11 11 10 10 10 10 10 10 10 10 10 10 10 10 9 9 9 9 8 8 8 8 8 8
16 15 15 14 14 13 13 13 13 12 12 11 11 11 11 11 11 11 11 11 10 10 10 10 10 10 10 10 10 10 10 9 9 9 9 9 8 8 8 8 8 8 8
16 15 15 14 14 13 13 13 13 12 12 12 11 11 11 11 11 11 11 11 10 10 10 10 10 10 10 9 9 9 9 9 9 9 9 8 8 8 8 8 8 8 8
15 15 15 14 14 14 13 13 13 12 12 12 11 11 11 11 11 11 11 10 10 10 10 9 9 9 9 9 9 9 9 9 9 9 8 8 8 7 7 7 7 8 8
16 15 15 14 14 14 13 13 12 12 12 12 12 11 11 11 11 11 10 10 10 10 9 9 9 9 9 9 9 9 9 9 8 8 8 8 7 7 7 7 7 7 7
18 16 15 15 14 14 13 13 13 12 12 12 12 11 11 11 11 10 10 10 10 10 9 9 9 9 9 9 9 9 9 9 8 8 8 8 8 7 7 7 7 7 7
17 17 16 15 14 14 14 13 13 12 12 12 12 11 11 11 11 10 10 10 10 9 9 9 9 9 9 9 9 9 9 9 9 9 8 8 8 7 7 7 7 7 6
18 17 16 15 15 14 14 13 13 13 12 12 12 11 11 11 11 10 10 10 10 9 9 9 9 9 9 9 9 9 9 9 9 9 8 8 8 8 7 7 6 6 6
18 18 17 16 15 14 14 14 13 13 12 12 12 11 11 11 11 10 10 10 10 9 9 9 9 9 9 9 9 9 9 9 9 9 8 8 8 8 7 7 6 6 6
19 18 17 17 16 15 14 14 13 13 12 12 12 11 11 11 11 10 10 10 10 9 9 9 9 9 9 9 9 9 9 9 9 9 8 8 8 7 7 7 7 6 6
19 18 18 17 16 15 15 14 14 13 13 12 12 11 11 11 10 10 10 10 10 9 9 9 9 9 9 9 9 9 9 9 9 8 8 8 8 7 7 7 7 7 6
19 19 18 17 17 16 15 14 14 13 13 12 12 11 11 11 10 10 10 10 9 9 9 9 9 9 9 9 9 9 9 9 9 8 8 8 7 7 7 7 7 7 6
19 18 18 17 17 16 15 13 13 13 12 12 12 11 11 11 10 10 10 10 9 9 9 9 9 9 9 9 9 9 9 9 8 8 8 7 7 7 7 7 6 6 6
18 18 18 17 17 16 14 14 13 13 13 12 12 11 11 11 11 10 10 10 9 9 9 9 9 9 9 9 9 9 9 9 8 8 8 7 7 7 6 6 6 6 6
19 18 18 18 17 16 16 16 15 14 13 13 12 11 11 11 11 10 10 10 10 9 9 9 9 9 9 9 9 9 9 8 8 8 7 7 7 6 6 6 6 6 6
19 19 18 18 18 17 17 15 14 13 12 12 11 11 11 11 11 10 10 10 9 9 9 9 9 9 9 9 9 9 8 8 8 8 7 7 7 6 6 6 6 5 5
20 19 19 19 18 18 17 15 14 13 13 13 13 12 12 11 11 10 10 10 10 9 9 9 9 9 9 9 9 8 8 8 8 7 7 7 7 6 6 6 5 5 5
20 19 19 19 18 18 17 16 15 15 14 14 13 12 12 11 11 10 10 10 9 9 9 9 9 9 9 9 9 8 8 8 7 7 7 7 7 6 6 6 5 5 4
19 19 19 19 18 18 17 16 16 15 15 14 13 12 12 11 11 10 10 10 9 9 9 9 9 9 9 9 8 8 8 8 7 7 6 6 6 6 6 6 5 5 4
Wind_Speed
7 11 20 21 20 19 17 16 15 15 14 13 13 13 13 13 13 14 14 14 15 15 15 15 15 15 15 16 16 17 17 18 18 18 18 17 17 17 16 16 16 16 17
11 16 22 21 21 20 18 17 16 15 14 14 13 13 13 13 13 13 14 14 14 15 15 15 15 15 15 15 15 16 16 16 16 17 17 16 15 16 16 16 15 14 15
13 18 21 22 21 20 19 18 16 16 14 13 13 13 13 13 12 13 13 13 14 14 14 14 14 14 14 14 14 14 15 15 15 15 16 16 13 14 14 14 14 14 14
15 18 19 23 22 20 19 18 17 16 14 14 13 13 13 12 12 12 13 13 13 13 14 14 13 13 13 13 13 14 14 14 14 14 15 15 13 12 13 13 13 13 12
13 16 20 24 22 21 20 19 17 16 15 14 14 13 13 13 12 12 13 13 13 13 13 13 12 12 12 12 13 13 13 13 13 13 14 14 13 11 12 12 12 11 11
12 15 20 24 23 22 21 19 18 17 16 15 14 13 13 12 12 12 12 12 12 11 11 11 11 11 12 12 12 12 12 11 11 11 12 12 12 10 10 10 10 10 10
13 15 19 23 23 22 21 20 19 18 17 15 14 13 13 12 12 11 11 11 10 10 10 10 10 10 11 11 11 11 10 9 9 8 9 10 10 10 10 9 10 10 9
13 13 18 23 23 22 21 20 19 18 17 16 14 13 13 12 11 11 10 10 9 9 9 9 9 9 9 9 10 9 8 7 7 6 7 9 9 9 9 9 9 9 9
10 10 12 18 21 22 21 20 20 18 17 16 15 14 13 12 11 10 10 9 8 8 8 7 8 8 8 8 8 8 8 7 6 5 6 8 9 9 9 8 9 9 9
9 8 8 12 16 18 19 20 20 19 18 17 15 14 13 12 11 10 9 8 7 7 7 6 6 6 7 7 7 7 7 7 5 4 5 7 8 9 9 9 9 9 9
11 8 7 9 12 15 16 19 19 19 18 17 15 15 13 10 9 9 7 6 6 6 5 5 5 6 6 7 7 7 7 6 5 4 5 6 7 8 8 9 9 10 10
18 14 9 9 11 13 15 16 15 15 16 15 15 14 12 10 9 8 6 5 5 5 4 4 5 6 6 6 7 7 6 5 4 5 6 6 7 8 8 9 9 10 10
18 17 14 11 11 12 10 12 12 12 13 14 15 15 13 10 8 6 5 3 3 4 3 4 5 5 5 5 5 6 5 5 4 4 5 6 6 7 7 8 9 9 10
16 18 15 13 11 12 11 10 11 10 11 11 14 15 12 8 6 5 4 4 3 3 2 2 3 4 4 4 4 4 5 4 4 4 5 6 6 6 7 8 8 8 9
17 18 17 15 14 12 10 9 10 10 11 13 14 15 14 9 6 6 5 5 4 4 3 2 2 2 3 4 4 4 4 4 4 4 4 5 6 7 7 8 8 8 8
18 18 17 17 15 13 11 9 9 11 13 13 14 15 16 12 9 7 5 5 5 5 4 3 2 2 2 3 4 4 4 4 4 4 5 6 7 7 7 8 8 8 9
19 18 18 18 16 16 14 11 10 12 13 12 13 16 16 14 12 9 5 5 6 6 5 4 3 3 2 2 3 4 4 4 4 4 5 6 7 8 8 8 8 9 10
14 17 18 17 18 18 15 12 10 12 13 12 14 15 16 16 14 11 6 5 7 7 6 4 2 2 2 2 2 3 3 4 4 4 5 6 7 8 8 8 9 9 10
16 17 19 18 19 19 16 11 10 10 11 12 14 14 15 16 16 12 8 7 9 7 4 3 2 2 2 2 2 3 3 3 3 4 5 5 6 7 7 8 9 9 10
15 16 17 18 18 16 13 9 8 8 9 11 12 14 16 16 16 13 9 9 9 5 4 3 3 3 2 2 3 3 3 3 3 3 3 4 5 6 7 7 8 8 9
14 16 18 19 18 16 14 14 13 13 11 10 10 14 16 16 16 13 8 8 7 6 6 6 4 3 2 1 3 3 3 3 3 3 3 3 4 5 5 6 7 7 8
17 19 19 20 20 19 17 15 12 10 8 8 7 11 16 16 16 14 10 8 7 6 6 6 4 4 2 2 3 2 2 3 2 2 2 2 2 3 4 4 6 6 7
17 19 19 21 21 22 18 11 8 6 5 6 9 10 12 16 16 15 13 10 9 8 7 7 6 6 4 1 2 3 3 3 2 3 2 2 2 1 2 4 5 6 6
18 17 19 20 20 20 18 17 17 13 12 13 10 10 10 13 15 16 15 13 10 8 8 7 6 5 5 3 1 1 2 3 2 2 3 2 2 2 3 3 5 5 5
15 15 16 17 18 19 20 20 20 15 12 8 7 11 11 10 12 14 14 12 10 8 8 8 7 6 5 5 4 3 2 2 2 2 3 4 3 3 3 3 4 4 4
10 12 14 16 17 18 20 20 21 19 14 13 11 13 11 8 8 11 12 11 10 8 9 8 8 8 6 5 4 4 4 3 3 3 4 3 3 4 3 3 3 3 4
Wind_Direction
185 180 171 159 152 148 143 138 134 128 123 119 114 110 105 100 97 94 91 87 83 81 79 78 78 77 76 74 73 71 68 65 61 57 54 56 60 59 57 55 51 46 46
158 170 167 159 153 149 145 139 134 129 125 121 116 114 110 105 102 98 95 91 87 83 80 80 79 79 76 73 73 73 71 67 64 59 51 43 52 60 57 54 52 50 48
151 164 164 158 153 150 146 141 138 134 130 125 121 117 114 110 106 102 97 93 89 86 83 82 81 81 78 74 73 73 71 68 64 56 45 33 35 57 57 55 52 50 48
153 160 161 159 156 153 148 145 143 140 137 133 128 123 119 115 111 107 101 97 93 89 87 84 83 82 79 76 75 74 71 67 61 52 40 30 24 52 55 54 52 51 48
152 158 162 160 158 155 152 150 148 145 142 138 133 128 124 120 116 111 105 100 96 92 89 86 84 82 80 77 76 74 72 66 58 48 37 26 18 43 50 48 45 44 42
151 158 164 162 160 157 156 154 153 149 147 143 138 134 128 123 118 113 110 106 101 96 91 88 85 83 81 79 78 76 73 66 57 47 33 21 10 33 41 39 36 35 35
155 160 167 165 163 160 158 157 156 154 151 147 144 140 134 129 125 121 117 112 106 100 94 90 86 83 80 78 77 75 72 68 60 47 29 11 5 28 32 28 24 24 26
156 160 169 168 165 162 161 160 159 157 154 150 147 144 140 136 133 130 125 118 112 105 98 93 89 85 81 78 75 71 69 68 61 43 20 1 2 21 28 23 15 16 17
154 158 169 169 166 165 165 164 163 161 159 155 153 150 146 143 141 137 132 127 120 111 103 96 90 85 80 76 72 68 66 65 58 33 8 353 359 14 22 19 15 12 13
156 162 168 165 163 164 166 167 166 165 163 160 157 153 150 150 148 142 137 134 128 119 111 99 88 79 72 67 62 61 64 57 46 24 0 347 357 12 19 20 21 17 17
174 176 171 163 161 162 164 169 168 168 166 162 159 156 152 147 144 141 143 145 140 130 117 100 83 69 60 51 50 55 58 46 34 16 353 345 1 11 17 22 23 24 26
185 185 179 170 163 162 167 168 167 166 165 160 158 156 152 151 148 147 157 157 141 124 106 86 69 59 55 46 41 47 48 41 32 9 350 351 4 10 20 24 26 27 26
186 185 185 178 169 167 166 164 164 163 161 159 159 159 157 156 156 154 158 151 126 108 84 65 58 55 52 44 41 46 45 43 29 10 358 3 7 13 22 26 29 28 25
184 190 186 181 176 174 169 168 166 163 163 163 166 165 161 158 161 166 166 165 153 136 110 79 65 56 54 50 53 50 45 38 25 15 10 17 21 24 26 26 26 25 25
188 190 189 185 182 177 172 172 173 172 172 171 171 174 172 170 172 175 177 174 175 170 153 131 94 66 57 56 55 52 41 31 28 27 28 35 38 37 33 30 26 25 26
193 193 190 189 186 181 182 180 178 178 175 174 178 182 182 181 178 176 177 178 185 185 175 158 140 105 75 70 53 46 42 36 37 50 55 52 49 49 42 35 30 26 21
195 192 191 192 188 188 187 183 180 181 179 181 184 186 186 187 184 179 176 183 189 182 164 144 124 96 80 65 48 39 37 36 47 61 71 67 59 51 46 39 30 24 16
190 191 193 192 192 193 191 186 183 183 183 186 186 187 190 191 187 180 178 186 184 171 159 140 122 101 78 65 46 24 28 36 46 65 80 78 71 59 48 42 36 25 14
193 192 192 193 193 195 192 187 183 181 185 188 187 188 192 190 188 183 183 183 175 163 155 141 111 117 107 74 55 39 24 29 38 69 78 81 79 69 58 48 39 27 14
194 192 193 195 194 191 188 182 179 182 189 189 190 192 190 190 187 183 180 176 168 155 152 144 126 98 98 100 71 45 23 20 46 57 64 78 79 72 63 50 38 25 13
193 192 193 194 193 187 189 191 193 197 195 195 195 193 190 188 185 182 175 170 169 172 170 155 133 120 90 86 82 32 7 23 49 41 47 68 64 60 56 44 28 15 6
199 197 196 196 193 191 194 195 195 189 190 192 187 191 192 189 185 185 177 176 174 167 161 159 143 131 110 88 117 95 8 342 349 15 14 45 35 34 29 17 7 1 358
203 200 199 197 194 194 191 181 166 152 149 177 192 196 194 190 186 184 183 177 176 174 176 174 162 151 149 112 106 139 150 230 289 320 337 358 347 342 339 339 343 347 352
208 202 200 196 195 192 185 183 182 188 194 196 192 191 186 188 186 185 182 179 177 176 175 175 167 156 145 155 135 97 139 156 164 293 309 312 315 294 301 315 321 332 348
205 198 197 193 193 190 188 189 190 195 196 181 171 177 183 186 185 185 182 178 177 177 174 168 164 163 157 157 160 152 134 96 126 174 264 303 319 293 285 288 293 306 329
198 192 190 190 192 190 189 191 193 194 183 173 177 184 186 185 185 184 181 180 178 175 174 173 169 169 166 158 160 160 161 164 182 180 219 258 283 291 296 287 269 273 296
Height
1508 1511 1515 1518 1521 1523 1525 1527 1529 1530 1531 1532 1533 1534 1535 1536 1536 1537 1537 1537 1538 1538 1538 1538 1538 1538 1539 1539 1539 1539 1539 1539 1539 1539 1539 1539 1539 1538 1538 1538 1538 1538 1538
1506 1510 1514 1518 1521 1523 1526 1527 1529 1530 1531 1533 1534 1535 1535 1536 1537 1537 1538 1538 1538 1539 1539 1539 1539 1539 1540 1540 1540 1540 1540 1540 1539 1539 1539 1539 1539 1539 1538 1538 1538 1538 1538
1506 1509 1513 1517 1520 1523 1525 1527 1529 1530 1532 1533 1534 1535 1536 1536 1537 1538 1539 1539 1539 1539 1540 1540 1540 1540 1541 1541 1541 1541 1541 1540 1540 1540 1540 1540 1540 1540 1540 1539 1539 1539 1538
1506 1509 1513 1517 1520 1523 1525 1527 1529 1530 1532 1533 1534 1535 1536 1537 1538 1539 1539 1539 1540 1540 1540 1540 1541 1541 1542 1542 1542 1542 1542 1541 1541 1541 1541 1541 1541 1542 1541 1541 1540 1539 1539
1506 1509 1512 1516 1519 1522 1525 1527 1529 1530 1532 1533 1535 1536 1536 1537 1538 1539 1540 1540 1541 1541 1541 1542 1542 1542 1543 1543 1543 1543 1543 1542 1542 1542 1542 1542 1542 1543 1542 1541 1541 1541 1540
1505 1509 1512 1516 1519 1522 1524 1526 1528 1530 1532 1533 1535 1536 1537 1538 1539 1540 1540 1541 1541 1542 1542 1543 1543 1543 1544 1544 1544 1544 1543 1543 1543 1543 1543 1543 1543 1543 1543 1542 1542 1541 1541
1505 1509 1512 1516 1519 1521 1524 1526 1528 1530 1532 1533 1535 1536 1537 1538 1539 1540 1541 1542 1542 1543 1543 1544 1544 1544 1544 1545 1545 1545 1544 1544 1544 1544 1543 1543 1543 1544 1543 1542 1542 1542 1541
1505 1508 1512 1515 1518 1521 1523 1526 1528 1530 1532 1533 1535 1536 1537 1538 1539 1540 1541 1542 1543 1544 1544 1545 1545 1545 1545 1545 1545 1545 1545 1545 1545 1544 1544 1544 1543 1544 1543 1542 1542 1542 1541
1506 1509 1512 1515 1518 1521 1523 1525 1528 1530 1532 1533 1535 1536 1538 1539 1540 1541 1542 1543 1543 1544 1545 1545 1546 1546 1546 1546 1546 1546 1546 1545 1545 1545 1544 1544 1543 1544 1543 1542 1542 1541 1541
1505 1508 1511 1514 1517 1520 1522 1525 1527 1529 1531 1533 1535 1536 1537 1539 1540 1541 1542 1543 1544 1545 1545 1546 1546 1547 1547 1547 1547 1546 1546 1546 1545 1545 1544 1544 1543 1544 1543 1542 1541 1540 1540
1504 1507 1510 1513 1516 1518 1521 1524 1526 1528 1531 1532 1534 1536 1537 1539 1540 1541 1542 1543 1544 1545 1546 1546 1547 1547 1547 1547 1547 1547 1546 1546 1545 1545 1544 1544 1543 1543 1543 1542 1541 1540 1539
1500 1504 1507 1511 1514 1517 1520 1522 1525 1527 1529 1531 1533 1535 1537 1538 1540 1541 1542 1543 1544 1545 1546 1547 1547 1547 1547 1547 1547 1547 1546 1546 1545 1545 1544 1543 1543 1543 1542 1541 1540 1539 1539
1496 1500 1504 1508 1511 1515 1517 1520 1523 1526 1528 1530 1532 1534 1536 1538 1539 1541 1542 1543 1544 1545 1546 1547 1547 1547 1547 1547 1547 1546 1546 1545 1545 1544 1544 1543 1542 1542 1542 1541 1540 1539 1538
1494 1498 1501 1505 1509 1512 1515 1518 1521 1524 1526 1529 1531 1533 1535 1537 1539 1540 1542 1543 1544 1545 1546 1547 1547 1547 1547 1547 1546 1546 1545 1545 1544 1544 1543 1542 1542 1541 1541 1540 1539 1538 1537
1491 1495 1498 1502 1506 1509 1513 1516 1519 1521 1524 1527 1530 1532 1534 1536 1538 1539 1541 1542 1543 1545 1546 1546 1547 1547 1547 1546 1546 1545 1545 1544 1543 1543 1542 1542 1541 1540 1540 1539 1538 1537 1536
1488 1491 1495 1499 1502 1506 1510 1513 1516 1519 1522 1525 1528 1530 1532 1535 1537 1538 1540 1541 1543 1544 1545 1546 1546 1546 1546 1546 1545 1545 1544 1543 1543 1542 1541 1541 1540 1539 1539 1538 1537 1536 1535
1484 1488 1491 1495 1499 1503 1506 1510 1513 1516 1519 1522 1525 1528 1531 1533 1535 1537 1539 1540 1542 1543 1544 1545 1545 1545 1545 1545 1544 1544 1543 1542 1541 1541 1540 1540 1539 1538 1538 1537 1536 1535 1534
1480 1484 1488 1491 1495 1498 1502 1506 1510 1513 1516 1519 1523 1526 1528 1531 1533 1535 1537 1539 1540 1541 1543 1543 1544 1544 1544 1544 1543 1543 1542 1541 1540 1540 1539 1539 1538 1537 1537 1536 1535 1533 1532
1476 1479 1483 1486 1490 1494 1498 1502 1506 1510 1513 1516 1519 1522 1525 1528 1531 1533 1535 1537 1538 1540 1541 1542 1542 1543 1543 1543 1542 1541 1541 1540 1539 1539 1538 1538 1537 1536 1535 1534 1533 1532 1530
1471 1474 1478 1482 1485 1490 1494 1498 1502 1506 1509 1512 1515 1518 1522 1525 1527 1530 1532 1534 1536 1538 1539 1540 1541 1541 1541 1541 1541 1540 1539 1539 1538 1538 1537 1537 1536 1535 1534 1533 1532 1530 1528
1464 1468 1472 1476 1480 1484 1488 1491 1495 1499 1503 1507 1510 1514 1518 1521 1524 1527 1529 1531 1533 1535 1536 1538 1539 1539 1539 1539 1539 1539 1538 1537 1537 1536 1536 1535 1535 1534 1533 1531 1530 1528 1526
1457 1460 1464 1468 1472 1476 1480 1485 1489 1493 1497 1502 1506 1510 1513 1517 1520 1523 1525 1528 1530 1532 1534 1535 1536 1537 1537 1538 1538 1537 1537 1537 1535 1535 1534 1534 1533 1532 1531 1530 1528 1526 1524
1448 1452 1456 1460 1465 1469 1474 1479 1484 1489 1493 1497 1500 1504 1508 1512 1515 1519 1522 1524 1527 1529 1530 1532 1533 1534 1535 1535 1535 1536 1535 1534 1534 1533 1532 1532 1531 1530 1529 1527 1526 1524 1522
1441 1445 1449 1453 1457 1462 1467 1471 1476 1479 1483 1487 1493 1498 1503 1507 1511 1514 1517 1520 1523 1525 1527 1529 1530 1531 1532 1533 1533 1533 1534 1533 1532 1531 1530 1529 1528 1527 1526 1525 1523 1521 1519
1434 1437 1441 1445 1450 1455 1459 1464 1468 1473 1478 1483 1488 1493 1497 1502 1506 1509 1513 1516 1519 1521 1523 1525 1526 1528 1529 1530 1530 1530 1530 1530 1529 1529 1527 1526 1526 1525 1523 1522 1520 1518 1516
1426 1430 1434 1438 1442 1447 1452 1457 1461 1466 1471 1476 1481 1486 1491 1496 1500 1504 1508 1511 1514 1517 1519 1521 1523 1524 1525 1526 1527 1527 1527 1527 1526 1525 1524 1522 1521 1521 1519 1518 1516 1515 1513